Temperature
8 8 8 7 7 7 6 5 4 3 3 3 3 2 1 -0 -1 -1 -2 -2 -2 -2 -2 -2 -2 -3 -3 -4 -4 -4 -5 -5 -4 -4 -4 -4 -3 -3
7 7 6 6 5 5 5 3 2 1 1 1 1 -0 -0 -1 -1 -2 -3 -3 -3 -3 -3 -3 -3 -3 -4 -4 -5 -5 -5 -5 -5 -5 -5 -4 -4 -4
6 5 5 4 4 4 3 2 1 0 -0 -0 -1 -1 -1 -2 -2 -3 -3 -3 -3 -3 -3 -3 -4 -4 -4 -5 -5 -5 -5 -6 -6 -5 -5 -5 -5 -4
4 4 3 3 2 2 1 0 -0 -1 -2 -2 -2 -3 -3 -3 -4 -4 -5 -5 -4 -4 -3 -4 -4 -4 -4 -5 -5 -6 -6 -6 -6 -6 -6 -6 -5 -5
3 2 2 1 1 -0 -1 -1 -2 -2 -3 -4 -4 -4 -5 -5 -5 -6 -6 -5 -4 -4 -4 -4 -4 -4 -5 -5 -6 -6 -6 -6 -6 -6 -6 -6 -6 -6
2 2 1 0 -1 -2 -2 -2 -3 -3 -4 -5 -5 -6 -6 -6 -7 -7 -7 -6 -5 -4 -4 -5 -5 -5 -5 -5 -5 -5 -5 -5 -5 -5 -6 -6 -6 -6
1 1 0 -1 -2 -2 -2 -3 -4 -5 -5 -6 -7 -7 -7 -7 -7 -8 -8 -7 -6 -5 -5 -5 -5 -4 -4 -5 -5 -5 -5 -5 -5 -6 -6 -6 -6 -6
1 -0 -1 -2 -2 -2 -3 -5 -6 -6 -7 -7 -7 -8 -8 -8 -8 -8 -8 -8 -9 -7 -7 -6 -5 -5 -5 -5 -5 -5 -5 -5 -5 -6 -6 -6 -6 -6
-0 -2 -2 -2 -3 -4 -5 -5 -6 -6 -7 -8 -8 -8 -8 -8 -9 -9 -9 -9 -9 -8 -8 -6 -5 -5 -5 -5 -5 -5 -5 -5 -5 -6 -6 -6 -7 -7
-2 -2 -2 -3 -4 -5 -6 -7 -7 -7 -7 -8 -8 -8 -9 -9 -9 -9 -9 -9 -8 -7 -7 -7 -5 -5 -6 -5 -5 -5 -5 -5 -6 -6 -6 -7 -7 -7
-3 -4 -4 -5 -5 -6 -8 -8 -8 -8 -8 -8 -8 -8 -9 -8 -9 -9 -8 -8 -8 -7 -7 -8 -6 -6 -6 -5 -5 -5 -5 -6 -6 -6 -6 -6 -7 -7
-4 -5 -6 -6 -7 -8 -9 -9 -9 -9 -9 -8 -8 -8 -8 -8 -8 -8 -8 -9 -9 -9 -7 -8 -8 -8 -8 -6 -6 -6 -6 -6 -6 -6 -6 -6 -7 -8
-6 -6 -7 -7 -8 -9 -9 -9 -9 -10 -9 -9 -8 -7 -7 -7 -7 -8 -8 -8 -9 -8 -7 -9 -8 -8 -10 -9 -7 -6 -6 -6 -6 -6 -6 -6 -6 -7
-7 -7 -8 -9 -9 -9 -9 -9 -9 -9 -9 -8 -8 -8 -7 -7 -7 -7 -7 -8 -8 -8 -7 -8 -8 -9 -10 -10 -9 -7 -6 -6 -6 -6 -6 -6 -7 -7
-8 -8 -9 -9 -9 -9 -9 -9 -9 -9 -9 -9 -8 -8 -8 -8 -7 -7 -7 -7 -7 -7 -7 -7 -8 -9 -9 -10 -9 -8 -7 -6 -6 -6 -7 -7 -7 -7
-8 -8 -8 -9 -9 -9 -9 -9 -9 -9 -9 -9 -9 -8 -8 -8 -8 -8 -7 -7 -7 -6 -5 -6 -7 -8 -8 -8 -9 -8 -7 -7 -6 -7 -7 -7 -7 -7
-9 -8 -9 -9 -8 -9 -9 -9 -9 -9 -9 -9 -9 -8 -8 -8 -8 -8 -7 -7 -7 -7 -6 -5 -6 -7 -7 -8 -8 -7 -7 -7 -7 -8 -8 -8 -7 -7
-9 -9 -9 -9 -9 -9 -9 -9 -9 -9 -9 -9 -8 -8 -8 -8 -8 -7 -7 -7 -7 -7 -6 -6 -6 -7 -7 -7 -7 -8 -8 -8 -8 -8 -9 -9 -8 -7
-9 -9 -9 -9 -9 -9 -9 -9 -8 -8 -8 -8 -8 -8 -8 -8 -8 -7 -7 -7 -7 -7 -6 -6 -7 -9 -10 -10 -8 -8 -9 -9 -9 -9 -9 -9 -9 -7
-9 -9 -10 -9 -9 -9 -9 -9 -8 -8 -8 -8 -8 -8 -8 -8 -8 -7 -7 -7 -7 -7 -7 -7 -7 -8 -10 -10 -9 -7 -7 -8 -9 -9 -8 -8 -8 -7
-9 -9 -9 -9 -9 -9 -9 -9 -8 -8 -8 -8 -8 -8 -8 -8 -8 -7 -7 -7 -7 -8 -8 -7 -7 -8 -9 -9 -9 -8 -7 -6 -8 -8 -8 -8 -8 -7
-9 -9 -9 -9 -9 -9 -9 -8 -8 -8 -8 -8 -8 -8 -8 -8 -7 -7 -7 -7 -7 -8 -8 -8 -8 -8 -8 -9 -8 -8 -7 -5 -5 -6 -6 -7 -7 -7
-9 -9 -9 -9 -9 -9 -8 -8 -8 -8 -8 -8 -8 -8 -8 -8 -7 -7 -7 -7 -8 -8 -8 -8 -8 -8 -8 -8 -8 -8 -8 -7 -6 -5 -4 -4 -5 -5
Wind_Speed
8 7 5 3 3 3 4 4 5 4 4 3 3 3 5 4 9 10 10 17 20 20 21 22 22 22 23 24 24 24 24 25 25 26 26 27 27 28
7 8 5 3 3 3 3 3 3 5 4 4 5 4 5 6 10 12 15 17 19 20 21 22 23 23 24 24 24 25 25 26 26 26 27 27 27 28
7 7 5 4 3 3 3 2 3 4 5 4 3 3 3 5 10 14 14 15 16 20 23 23 23 23 24 24 25 25 25 26 26 26 27 28 28 29
7 6 4 3 3 3 3 3 4 4 5 6 3 3 6 6 6 7 12 14 15 21 23 23 23 24 23 23 24 24 25 26 27 27 28 28 29 30
6 5 3 3 3 2 3 4 4 4 5 5 5 4 5 5 5 6 8 11 15 18 21 22 22 22 22 24 25 27 27 28 28 28 28 29 29 30
7 5 4 2 2 4 4 5 5 5 5 5 5 5 5 6 5 6 8 6 8 14 18 19 19 21 24 27 28 28 27 27 28 28 28 29 29 30
6 4 2 1 5 6 5 6 6 5 5 5 5 4 5 5 5 5 9 8 8 9 7 7 11 13 19 24 25 26 27 27 28 28 29 30 30 30
4 3 1 2 3 5 8 9 7 6 5 5 5 7 7 6 6 8 9 10 7 3 5 10 8 12 11 16 23 27 28 29 29 29 30 30 30 30
4 2 2 2 3 3 6 9 10 14 13 8 7 8 8 7 8 9 9 10 12 7 10 14 9 13 11 19 26 28 30 31 30 29 29 28 28 28
4 2 0 3 5 6 6 6 6 7 9 7 7 9 9 9 9 10 10 9 9 9 7 9 10 11 13 13 25 29 30 29 28 27 27 27 28 28
2 0 2 4 9 11 6 4 5 6 11 16 18 17 19 20 18 8 6 7 11 9 5 5 5 7 10 12 16 22 24 25 27 29 29 29 29 28
1 1 5 7 10 11 5 4 6 7 7 8 9 11 12 15 17 7 5 7 8 7 4 4 5 5 7 6 7 9 14 22 28 30 30 29 28 17
1 2 4 10 11 12 10 4 10 11 4 4 7 8 7 6 6 6 6 7 10 9 7 5 6 5 6 8 7 8 11 13 14 18 24 27 27 20
2 3 5 11 12 12 10 12 16 11 4 6 7 8 7 8 8 7 10 11 14 14 15 12 9 10 11 15 12 10 9 10 12 15 13 20 21 23
3 8 9 11 11 8 11 14 10 5 5 6 8 8 7 8 9 8 9 9 12 16 19 17 14 13 13 14 13 14 14 12 12 11 10 9 11 11
3 5 8 10 9 10 9 8 5 6 6 6 8 9 9 8 8 8 9 10 11 11 10 14 12 13 14 15 15 17 15 10 9 11 12 13 12 12
3 2 3 4 5 5 5 5 5 6 6 7 8 9 10 9 10 8 7 8 9 11 14 9 7 10 14 16 16 17 16 15 14 12 12 15 14 12
5 3 4 4 5 6 7 7 7 6 6 7 8 8 9 10 11 10 8 10 11 13 13 13 12 12 9 10 17 17 15 15 14 12 13 16 17 11
3 3 4 5 5 6 6 6 7 7 7 7 8 8 9 9 10 11 10 10 12 13 13 12 11 11 14 17 10 12 13 15 16 15 13 14 17 14
3 4 5 5 5 6 6 7 7 8 7 7 8 8 8 9 10 11 10 11 13 14 14 12 9 10 13 16 17 17 17 15 14 16 15 14 15 20
4 4 5 5 6 6 6 7 7 8 8 8 8 9 8 9 10 11 12 17 16 14 15 15 14 19 15 13 13 14 14 15 16 16 16 16 16 14
5 5 6 6 6 6 7 7 8 8 8 8 9 9 9 9 11 13 13 13 14 14 16 16 15 14 12 15 17 17 19 19 19 23 21 19 13 8
5 6 6 7 6 6 6 7 9 9 9 9 9 9 9 10 11 12 14 14 14 15 16 16 14 12 13 13 15 16 19 20 16 16 16 19 21 23
Wind_Direction
133 128 123 117 114 119 122 137 158 207 253 256 251 222 235 293 315 316 309 312 309 308 305 302 300 298 296 295 293 292 291 290 288 286 284 282 280 279
126 124 114 113 122 121 128 143 168 183 226 243 239 243 260 285 300 310 305 308 309 305 301 299 298 296 294 293 292 291 289 287 285 283 282 281 281 280
120 124 127 131 142 139 130 159 189 184 224 252 248 253 261 271 288 295 297 292 288 299 300 299 297 296 295 294 292 290 287 285 284 283 283 282 281 280
118 124 135 142 152 147 165 196 212 210 217 248 250 250 253 263 266 276 291 294 291 297 299 299 298 298 296 294 292 290 289 287 285 283 281 280 279 278
114 125 131 140 170 181 201 216 229 231 218 236 253 243 255 262 271 273 276 279 287 295 299 299 297 296 294 295 295 293 290 287 284 281 279 278 277 276
92 91 89 123 221 225 227 227 231 238 234 240 255 256 257 257 257 275 291 277 287 294 292 290 290 293 294 293 292 290 288 286 283 281 279 277 275 273
88 76 59 285 251 235 229 228 225 235 243 249 262 268 268 268 270 276 297 297 286 277 274 270 278 281 284 286 289 288 286 284 282 281 280 278 276 275
84 59 351 297 297 291 280 273 247 232 231 237 254 268 275 270 275 286 295 301 299 264 277 288 280 283 281 278 283 286 287 287 285 284 282 280 278 275
97 81 36 5 2 317 301 296 294 292 286 279 280 278 279 277 277 281 280 281 286 287 293 290 279 280 279 280 285 287 287 288 287 285 283 280 277 275
110 114 338 311 302 289 263 264 268 276 283 283 263 265 267 269 264 278 287 290 281 278 271 280 284 279 281 275 281 283 285 286 286 285 285 284 282 279
106 110 290 281 301 305 300 279 278 274 290 296 296 297 302 305 305 303 298 299 297 292 256 259 278 283 284 278 273 278 282 286 288 288 288 286 283 280
72 304 314 311 308 311 308 297 295 286 282 295 303 304 298 295 299 292 274 280 288 290 250 249 277 301 298 268 255 266 276 282 284 285 285 285 284 283
237 264 280 314 317 318 325 325 306 313 327 319 307 300 295 287 283 273 257 254 271 272 269 266 275 266 270 290 284 270 269 275 281 281 283 284 283 280
262 266 281 316 329 334 333 320 319 330 338 315 306 301 299 296 293 282 273 258 252 260 269 270 271 276 281 286 289 287 277 274 276 279 277 281 282 280
299 321 331 339 344 340 327 327 337 336 312 305 301 296 289 283 289 292 288 275 268 264 265 258 257 267 270 276 280 287 293 290 276 269 270 266 267 270
339 356 357 350 345 336 334 331 321 304 302 297 299 298 300 296 295 296 301 308 305 294 258 246 248 255 268 272 276 281 281 278 278 274 274 276 269 261
36 40 1 346 340 331 321 315 310 310 306 299 298 301 302 302 301 302 295 299 292 297 304 299 250 248 256 265 273 272 275 277 276 277 279 282 277 262
15 7 340 327 321 317 316 314 309 302 298 298 296 293 295 298 299 298 293 293 292 293 293 299 305 305 291 264 242 258 269 276 282 280 276 281 283 270
17 327 310 304 301 299 296 296 296 294 294 291 288 289 290 291 292 295 297 295 293 292 291 291 292 294 300 303 280 241 261 282 288 287 281 276 280 281
318 300 296 296 296 295 294 294 295 297 294 289 286 284 284 286 289 291 292 291 294 296 297 294 284 283 286 291 294 292 279 275 283 287 288 283 278 278
300 293 288 288 288 287 287 286 286 288 287 286 285 283 283 284 286 288 290 293 295 294 296 296 291 292 289 288 289 292 293 283 281 284 288 288 288 286
289 289 290 285 284 283 285 287 288 287 287 286 285 285 285 283 285 289 291 292 292 291 291 292 293 295 294 297 298 300 303 306 303 296 286 276 279 282
284 288 287 286 281 280 281 282 283 286 285 284 285 285 286 288 288 287 288 288 288 291 295 300 303 300 298 297 299 301 302 306 309 311 306 297 287 276
Height
1497 1499 1500 1501 1502 1502 1502 1503 1505 1502 1500 1500 1499 1497 1496 1493 1490 1486 1483 1480 1477 1475 1473 1470 1467 1465 1463 1461 1459 1458 1457 1455 1454 1453 1452 1451 1451 1450
1491 1493 1495 1496 1497 1497 1497 1498 1499 1498 1495 1493 1493 1492 1490 1487 1484 1480 1476 1473 1470 1467 1465 1462 1460 1457 1455 1453 1451 1450 1448 1446 1445 1444 1443 1442 1441 1441
1486 1488 1490 1492 1493 1493 1493 1493 1494 1493 1490 1488 1486 1485 1483 1480 1477 1474 1470 1466 1463 1461 1458 1455 1452 1450 1447 1445 1443 1441 1439 1438 1436 1435 1434 1432 1431 1430
1482 1484 1486 1487 1488 1488 1488 1489 1489 1487 1485 1481 1478 1477 1475 1473 1469 1466 1463 1460 1456 1454 1451 1448 1445 1442 1440 1437 1435 1433 1431 1429 1427 1425 1423 1422 1421 1419
1478 1480 1482 1483 1484 1484 1484 1483 1483 1482 1479 1475 1472 1470 1467 1466 1462 1458 1455 1452 1449 1446 1444 1441 1438 1435 1433 1430 1427 1424 1421 1418 1416 1414 1412 1411 1409 1408
1474 1476 1477 1478 1479 1479 1478 1477 1477 1475 1473 1469 1466 1463 1460 1458 1455 1451 1446 1444 1441 1439 1436 1433 1430 1428 1426 1422 1419 1415 1412 1409 1406 1404 1402 1400 1399 1398
1470 1472 1472 1473 1473 1473 1472 1471 1470 1469 1467 1464 1460 1457 1454 1452 1449 1445 1440 1435 1432 1431 1427 1425 1422 1419 1417 1413 1410 1406 1403 1400 1397 1394 1392 1390 1389 1387
1467 1467 1468 1467 1468 1467 1466 1466 1465 1463 1460 1458 1455 1452 1449 1446 1443 1439 1434 1429 1424 1423 1420 1415 1415 1410 1408 1404 1401 1398 1394 1391 1387 1384 1382 1379 1378 1376
1463 1463 1464 1464 1463 1462 1460 1460 1459 1458 1456 1454 1449 1446 1443 1440 1436 1432 1429 1425 1421 1418 1414 1405 1405 1401 1399 1395 1392 1389 1385 1381 1378 1375 1372 1369 1367 1365
1459 1460 1460 1459 1458 1456 1455 1453 1452 1450 1449 1446 1443 1440 1437 1434 1431 1428 1424 1418 1414 1412 1408 1399 1395 1392 1387 1384 1382 1379 1375 1372 1368 1365 1362 1359 1356 1354
1456 1456 1456 1455 1453 1451 1450 1448 1446 1444 1442 1440 1437 1434 1432 1429 1426 1422 1417 1412 1406 1402 1401 1394 1386 1381 1375 1371 1370 1367 1364 1361 1358 1354 1350 1347 1344 1342
1453 1453 1452 1450 1448 1447 1445 1442 1439 1437 1434 1431 1429 1427 1425 1422 1420 1416 1412 1407 1401 1394 1392 1388 1381 1375 1364 1358 1357 1355 1352 1350 1346 1343 1339 1335 1333 1330
1450 1449 1447 1445 1443 1442 1440 1437 1434 1432 1428 1426 1423 1421 1419 1416 1414 1411 1407 1402 1397 1391 1388 1383 1375 1370 1364 1352 1345 1344 1342 1338 1334 1330 1327 1324 1322 1319
1446 1444 1442 1441 1439 1437 1434 1432 1429 1426 1423 1421 1418 1416 1413 1410 1408 1405 1401 1397 1392 1387 1382 1378 1370 1364 1357 1349 1340 1334 1332 1329 1324 1319 1316 1314 1312 1310
1442 1440 1439 1436 1434 1431 1429 1427 1424 1422 1419 1416 1414 1411 1408 1405 1401 1398 1394 1390 1385 1381 1376 1370 1364 1358 1352 1344 1335 1328 1322 1318 1315 1311 1307 1303 1300 1298
1438 1436 1434 1432 1430 1428 1425 1423 1421 1419 1416 1413 1410 1407 1403 1400 1396 1392 1387 1382 1375 1370 1368 1363 1357 1351 1344 1337 1330 1321 1316 1310 1304 1301 1296 1292 1289 1286
1435 1433 1431 1429 1427 1425 1423 1421 1419 1416 1413 1410 1406 1403 1399 1395 1391 1387 1382 1377 1371 1364 1358 1355 1350 1343 1336 1329 1321 1314 1308 1301 1296 1292 1287 1281 1277 1276
1432 1430 1428 1426 1424 1422 1420 1418 1416 1413 1410 1407 1403 1399 1395 1391 1386 1383 1378 1372 1366 1359 1353 1347 1341 1334 1327 1319 1314 1306 1300 1293 1288 1283 1279 1273 1265 1263
1430 1428 1426 1424 1422 1420 1417 1415 1412 1410 1407 1403 1399 1395 1391 1387 1383 1378 1373 1367 1361 1354 1347 1341 1335 1329 1321 1311 1303 1301 1294 1286 1280 1275 1270 1265 1257 1251
1428 1426 1424 1422 1420 1417 1415 1412 1409 1406 1403 1399 1395 1392 1388 1383 1378 1373 1368 1362 1355 1347 1340 1334 1330 1324 1318 1309 1297 1289 1287 1280 1274 1267 1260 1254 1248 1243
1426 1424 1422 1420 1417 1415 1412 1409 1406 1403 1399 1395 1391 1387 1383 1379 1373 1368 1362 1356 1349 1342 1334 1327 1322 1318 1311 1303 1293 1283 1276 1273 1267 1260 1252 1245 1238 1233
1424 1422 1420 1418 1415 1412 1409 1406 1402 1399 1395 1391 1387 1383 1379 1374 1368 1362 1356 1350 1343 1336 1328 1321 1314 1309 1304 1298 1289 1278 1268 1262 1256 1251 1245 1240 1234 1226
1421 1419 1417 1415 1412 1409 1406 1402 1399 1395 1391 1386 1382 1378 1374 1369 1363 1357 1351 1344 1337 1330 1323 1316 1309 1303 1297 1291 1283 1273 1264 1256 1248 1241 1236 1233 1228 1222